This demonstration page uses our WeatherBlox Daily Observations layout. Learn more.

Left ArrowRight Arrow

39.29038, -76.61219

Hourly Observations for March 18, 2015

Temp ( °F °C ) Dew Point ( °F °C ) Humidity (%) Winds ( mph kmh ) Pressure ( in mb ) Visibility ( mi km ) Precip ( " mm )
12:54 am 00:54 undefined 38 3.3 7 -13.9 27 27 undefined N/A 30.09 1019 N/A 0.00 0.00
1:54 am 01:54 undefined 37 2.8 9 -12.8 31 31 undefined N/A 30.10 1019 N/A 0.00 0.00
2:54 am 02:54 undefined 36 2.2 10 -12.2 34 34 undefined N/A 30.09 1019 N/A 0.00 0.00
3:54 am 03:54 undefined 35 1.7 11 -11.7 37 37 undefined N/A 30.10 1019 N/A 0.00 0.00
4:54 am 04:54 undefined 34 1.1 12 -11.1 40 40 undefined N/A 30.10 1019 N/A 0.00 0.00
5:54 am 05:54 undefined 34 1.1 12 -11.1 40 40 undefined N/A 30.11 1020 N/A 0.00 0.00
6:54 am 06:54 undefined 34 1.1 11 -11.7 38 38 undefined N/A 30.14 1021 N/A 0.00 0.00
7:54 am 07:54 undefined 35 1.7 10 -12.2 35 35 undefined N/A 30.16 1022 N/A 0.00 0.00
8:54 am 08:54 undefined 36 2.2 9 -12.8 32 32 undefined N/A 30.18 1022 N/A 0.00 0.00
9:54 am 09:54 undefined 37 2.8 6 -14.4 27 27 undefined N/A 30.19 1023 N/A 0.00 0.00
10:54 am 10:54 undefined 39 3.9 8 -13.3 28 28 undefined N/A 30.19 1022 N/A 0.00 0.00
11:54 am 11:54 undefined 42 5.6 8 -13.3 24 24 undefined N/A 30.20 1023 N/A 0.00 0.00
12:54 pm 12:54 undefined 42 5.6 5 -15 21 21 undefined N/A 30.18 1022 N/A 0.00 0.00
1:54 pm 13:54 undefined 43 6.1 4 -15.6 20 20 undefined N/A 30.15 1021 N/A 0.00 0.00
2:54 pm 14:54 undefined 45 7.2 4 -15.6 18 18 undefined N/A 30.12 1020 N/A 0.00 0.00
3:54 pm 15:54 undefined 46 7.8 4 -15.6 17 17 undefined N/A 30.11 1020 N/A 0.00 0.00
4:54 pm 16:54 undefined 47 8.3 7 -13.9 19 19 undefined N/A 30.10 1019 N/A 0.00 0.00
5:54 pm 17:54 undefined 47 8.3 8 -13.3 20 20 undefined N/A 30.10 1019 N/A 0.00 0.00
6:54 pm 18:54 undefined 47 8.3 8 -13.3 20 20 undefined N/A 30.11 1020 N/A 0.00 0.00
7:54 pm 19:54 undefined 46 7.8 9 -12.8 22 22 undefined N/A 30.14 1021 N/A 0.00 0.00
8:54 pm 20:54 undefined 45 7.2 9 -12.8 23 23 undefined N/A 30.16 1021 N/A 0.00 0.00
9:54 pm 21:54 undefined 44 6.7 11 -11.7 26 26 undefined N/A 30.18 1022 N/A 0.00 0.00
10:54 pm 22:54 undefined 42 5.6 12 -11.1 29 29 undefined N/A 30.19 1023 N/A 0.00 0.00
11:54 pm 23:54 undefined 40 4.4 15 -9.4 36 36 undefined N/A 30.21 1023 N/A 0.00 0.00

Powered by AerisWeather